Regional Weather Roundup
Issued by NWS Lake Charles, LA

Home | Current Version | Previous Version | Text Only | Print | Product List | Glossary On
Versions: 1 2 3 4 5 6 7 8 9 10 11 12 13 14 15 16 17 18 19 20 21 22 23 24 25 26 27 28 29 30 31 32 33 34 35 36 37 38 39 40 41 42 43 44 45 46 47 48 49 50
000
ASUS44 KLCH 032310
RWRLCH
RWRLCH
REGIONAL WEATHER ROUNDUP
NATIONAL WEATHER SERVICE LAKE CHARLES LA
500 PM CST TUE MAR 03 2015

Note: "fair" indicates few or no clouds below 12,000 feet with no
significant weather and/or obstructions to visibility.


ACROSS SOUTHEAST TEXAS

CITY           SKY/WX    TMP DP  RH WIND       PRES   REMARKS
BEAUMONT       PTSUNNY   73  66  78 S17G24    29.91F
BEAUMONT CITY  CLOUDY    72  66  79 S14       29.92S
ORANGE         MOCLDY    73  67  82 S13G18    29.93F
JASPER         SUNNY     75  62  64 S10G21    29.91F
$$

ACROSS CENTRAL LOUISIANA

CITY           SKY/WX    TMP DP  RH WIND       PRES   REMARKS
LEESVILLE      SUNNY     74  64  70 S15       29.90F
FULLERTON        N/A     77  63  61 VRB5      29.89S
ALEXANDRIA INT MOSUNNY   74  64  71 S9        29.90F
ESLER FIELD    SUNNY     78  63  59 SW15G28   29.92S
DERIDDER       MOCLDY    76  64  67 CALM      29.94S
OAKDALE        CLOUDY    74  66  75 S8        29.93S
OPELOUSAS        N/A     74  67  77 S12G21    29.94F
$$

ACROSS SOUTHWEST AND SOUTH CENTRAL LOUISIANA

CITY           SKY/WX    TMP DP  RH WIND       PRES   REMARKS
SULPHUR        PTCLDY    74  67  79 S13G22    29.94S
LAKE CHARLES   PTSUNNY   73  67  81 S13       29.93S
CHENNAULT INT  NOT AVBL
CAMERON PHI    NOT AVBL
DEQUINCY       NOT AVBL
JENNINGS         N/A     74  68  82 S12G20    29.94F
LAFAYETTE      MOSUNNY   75  67  76 S14G24    29.96S
NEW IBERIA     MOSUNNY   75  69  81 S13       29.97F
ABBEVILLE      NOT AVBL
PATTERSON      PTSUNNY   72  70  94 S9        29.98F
SALT POINT       N/A     70  67  90 SE6       29.97S
$$

SELECTED SITES ACROSS THE REGION

CITY           SKY/WX    TMP DP  RH WIND       PRES   REMARKS
HOUSTON BUSH   PTSUNNY   77  62  59 S12G23    29.86F
HOUSTON HOBBY  PTSUNNY   76  65  68 S17G25    29.87S
GALVESTON      CLOUDY    66  65  96 S15       29.91S FOG
COLLEGE STAT   PTSUNNY   74  63  68 S10       29.84S
CONROE         MOSUNNY   76  62  62 S13       29.86F
HUNTSVILLE     MOSUNNY   77  64  64 S13       29.84F
LUFKIN         PTSUNNY   76  63  64 S14       29.85F
SHREVEPORT     PTSUNNY   68  63  84 SE7       29.88F
MONROE         MOSUNNY   73  65  75 S9        29.91F
NATCHEZ MS     MOSUNNY   77  64  65 S13       29.94S
BATON ROUGE    PTSUNNY   72  69  90 S15       29.97S
N.O. INTL ARPT PTSUNNY   75  64  68 S14G24    30.00S
SLIDELL        PTSUNNY   74  67  78 S14       30.00F
$$

MARINE REPORTS

STATION/POSITION TIME  TEMP    WIND        PRES    VSBY  WAVE
                       AIR SEA DIR/SP/G                  HT/PER
                 (UTC) (F)     (DEG/KT/KT) (MB)    (MI)  (FT/S)
BUOY 30 S HIGH I 2300   63 62  130/  6/  8 1012.5F         1/ 7
SEA RIM ST PARK  2300   63     140/  7/  9 1013.5F
PORT ARTHUR      2300      58  170/  7/ 11 1013.2F
SABINE PASS N    2300   63 55  150/  9/ 12 1013.3F
TEXAS POINT      NOT AVBL
CALCASIEU PASS   2300   62 58  150/  8/ 10   N/A
LK CHARLES BEACH 2300   73 60              1013.7F
MARSH ISLAND     2200   69     170/  6/  8   N/A           0
FRESH WATER LOCK 2300   68 62  120/  6/  8 1014.7F
AMERADA PASS     2300   70 50  160/  5/  8 1015.4S
$$


USA.gov is the U.S. government's official web portal to all federal, state and local government web resources and services.